period_start,C,m1,H,J0,J1,J2,J3,J4,J5,JA,JB,JC,JD,JJ,JK,JN,#
2016-07-02 00:02:01,0.00,0.08,0.00,19.80,25.71,29.34,14.88,47.70,1022.48,2045.99,3541.97,3082.99,3502.20,599.91,605.89,5.40,0000 0000 0000 0000 000000
2016-07-02 00:07:02,0.00,0.09,0.00,19.78,25.72,29.38,14.88,47.64,1022.48,2045.98,3541.92,3082.97,3502.07,599.85,605.93,5.45,0000 0000 0000 0000 000000
2016-07-02 00:12:04,0.00,0.09,0.00,19.79,25.72,29.35,14.82,47.61,1022.48,2045.99,3541.81,3082.98,3502.03,599.67,605.65,5.50,0000 0000 0000 0000 000000
2016-07-02 00:17:05,0.00,0.09,0.00,19.81,25.72,29.37,14.94,47.88,1022.48,2045.98,3541.49,3082.96,3502.01,600.14,606.23,5.55,0000 0000 0000 0000 000000
2016-07-02 00:22:06,0.00,0.09,0.00,19.81,25.72,29.36,14.91,47.89,1022.48,2045.99,3541.21,3082.90,3502.01,600.15,606.02,5.60,0000 0000 0000 0000 000000
2016-07-02 00:27:07,0.00,0.09,0.00,19.84,25.72,29.37,14.91,47.87,1022.48,2045.99,3541.03,3082.71,3502.00,600.02,605.94,5.65,0000 0000 0000 0000 000000
2016-07-02 00:32:08,0.01,0.09,0.00,19.84,25.72,29.35,14.89,47.80,1022.48,2045.97,3541.00,3082.19,3501.98,600.05,606.00,5.70,0000 0000 0000 0000 000000
2016-07-02 00:37:09,0.00,0.09,0.00,19.83,25.72,29.22,14.92,47.64,1022.48,2045.98,3541.00,3082.03,3501.90,600.29,606.23,5.75,0000 0000 0000 0000 000000
2016-07-02 00:42:11,0.01,0.09,0.00,19.79,25.72,29.35,14.91,47.82,1022.48,2045.98,3540.98,3082.01,3501.65,600.02,606.14,5.80,0000 0000 0000 0000 000000
2016-07-02 00:47:12,0.04,0.09,0.00,19.81,25.73,29.31,14.86,47.69,1022.48,2045.97,3540.25,3081.53,3500.98,599.97,606.02,5.85,0000 0000 0000 0000 000000
2016-07-02 00:52:14,0.01,0.09,0.00,19.81,25.74,29.35,14.92,47.77,1022.48,2045.97,3539.96,3081.01,3500.21,600.25,606.30,5.90,0000 0000 0000 0000 000000
2016-07-02 00:57:15,0.00,0.09,0.00,19.83,25.75,29.41,14.85,47.79,1022.48,2045.97,3539.90,3081.00,3500.06,599.89,605.96,5.95,0000 0000 0000 0000 000000
2016-07-02 01:02:16,0.01,0.09,0.00,19.85,25.75,29.39,14.94,47.79,1022.48,2045.97,3539.53,3081.00,3500.02,600.14,605.96,6.00,0000 0000 0000 0000 000000
2016-07-02 01:07:18,0.00,0.09,0.00,19.87,25.75,29.31,14.90,47.77,1022.48,2045.97,3539.09,3080.99,3500.00,599.91,605.80,6.05,0000 0000 0000 0000 000000
2016-07-02 01:12:19,0.00,0.09,0.00,19.87,25.76,29.38,14.83,47.84,1022.48,2045.97,3539.02,3080.99,3500.00,599.87,605.73,6.10,0000 0000 0000 0000 000000
2016-07-02 01:17:20,0.00,0.09,0.00,19.89,25.77,29.39,14.84,47.78,1022.48,2045.98,3539.00,3080.97,3500.00,599.87,605.66,6.15,0000 0000 0000 0000 000000
2016-07-02 01:22:21,0.00,0.09,0.00,19.89,25.77,29.41,14.87,47.65,1022.48,2045.96,3539.00,3080.91,3499.98,600.13,605.94,6.20,0000 0000 0000 0000 000000
2016-07-02 01:27:23,-0.00,0.09,0.00,19.90,25.78,29.39,14.84,47.89,1022.48,2045.93,3539.00,3080.88,3499.98,599.97,605.81,6.25,0000 0000 0000 0000 000000
2016-07-02 01:32:24,0.01,0.09,0.00,19.91,25.79,29.39,14.79,48.04,1022.48,2045.96,3538.98,3080.58,3499.91,599.47,605.21,6.30,0000 0000 0000 0000 000000
2016-07-02 01:37:26,0.01,0.09,0.00,19.93,25.80,29.43,14.85,47.78,1022.46,2045.92,3538.95,3080.19,3499.52,600.02,605.77,6.35,0000 0000 0000 0000 000000
2016-07-02 01:42:27,0.00,0.09,0.00,19.94,25.80,29.42,14.83,47.80,1022.43,2045.95,3538.91,3080.08,3499.27,599.97,605.74,6.40,0000 0000 0000 0000 000000
2016-07-02 01:47:28,0.00,0.09,0.00,19.93,25.81,29.44,14.87,47.72,1022.45,2045.88,3538.65,3080.06,3499.08,600.16,605.91,6.45,0000 0000 0000 0000 000000
2016-07-02 01:52:29,-0.00,0.09,0.00,19.96,25.82,29.45,14.87,47.82,1022.45,2045.68,3538.14,3080.01,3499.00,599.90,605.55,6.50,0000 0000 0000 0000 000000
2016-07-02 01:57:31,0.00,0.09,0.00,19.93,25.82,29.33,14.97,47.84,1022.45,2045.70,3538.03,3080.00,3499.01,600.48,606.18,6.55,0000 0000 0000 0000 000000
2016-07-02 02:02:32,-0.04,0.09,0.00,19.93,25.84,29.30,14.92,47.86,1022.41,2045.34,3538.01,3079.99,3499.00,599.87,605.48,6.60,0000 0000 0000 0000 000000
2016-07-02 02:07:33,0.01,0.09,0.00,19.93,25.85,29.43,14.83,47.82,1022.40,2045.26,3538.00,3079.98,3498.97,599.92,605.76,6.65,0000 0000 0000 0000 000000
2016-07-02 02:12:35,-0.01,0.09,0.00,19.95,25.85,29.44,14.85,47.90,1022.31,2045.13,3537.97,3079.89,3498.82,600.04,605.69,6.70,0000 0000 0000 0000 000000
2016-07-02 02:17:36,0.02,0.09,0.00,19.97,25.87,29.47,14.84,47.82,1022.16,2045.10,3537.79,3079.62,3498.38,600.13,605.56,6.75,0000 0000 0000 0000 000000
2016-07-02 02:22:37,0.01,0.09,0.00,19.96,25.87,29.46,14.88,47.93,1022.13,2045.05,3537.32,3079.20,3498.07,599.93,605.46,6.80,0000 0000 0000 0000 000000
2016-07-02 02:27:38,0.01,0.09,0.00,19.99,25.88,29.45,14.89,47.96,1022.05,2045.04,3537.01,3079.03,3498.01,600.17,605.54,6.85,0000 0000 0000 0000 000000
2016-07-02 02:32:40,0.00,0.09,0.00,20.02,25.90,29.43,14.87,47.98,1022.15,2045.03,3536.72,3079.00,3497.98,600.02,605.41,6.91,0000 0000 0000 0000 000000
2016-07-02 02:37:41,0.04,0.09,0.00,20.02,25.90,29.47,14.89,47.97,1022.18,2045.03,3535.94,3078.56,3497.35,600.07,605.42,6.96,0000 0000 0000 0000 000000
2016-07-02 02:42:42,0.05,0.10,0.00,20.04,25.91,29.50,14.80,47.78,1022.29,2045.02,3534.79,3077.85,3496.58,600.14,605.56,7.01,0000 0000 0000 0000 000000
2016-07-02 02:47:43,0.06,0.10,0.00,20.05,25.92,29.49,14.89,47.94,1022.32,2045.01,3533.48,3076.86,3495.48,599.90,605.30,7.06,0000 0000 0000 0000 000000
2016-07-02 02:52:45,0.04,0.10,0.00,20.07,25.92,29.52,14.91,47.97,1022.41,2045.00,3532.18,3076.04,3494.57,600.17,605.54,7.11,0000 0000 0000 0000 000000
2016-07-02 02:57:46,0.04,0.10,0.00,20.07,25.93,29.48,14.82,47.88,1022.47,2045.00,3531.49,3075.49,3493.85,599.65,605.21,7.16,0000 0000 0000 0000 000000
2016-07-02 03:02:47,0.05,0.11,0.00,20.11,25.95,29.50,14.88,47.77,1022.48,2045.00,3530.33,3074.61,3492.97,600.04,605.53,7.21,0000 0000 0000 0000 000000
2016-07-02 03:07:49,0.03,0.11,0.00,20.12,25.95,29.57,14.84,47.84,1022.47,2044.99,3529.37,3074.01,3492.10,600.11,605.53,7.26,0000 0000 0000 0000 000000
2016-07-02 03:12:50,0.00,0.11,0.00,20.13,25.96,29.57,14.81,47.87,1022.47,2044.99,3529.00,3073.84,3491.98,599.90,605.20,7.31,0000 0000 0000 0000 000000
2016-07-02 03:17:52,0.01,0.11,0.00,20.14,25.97,29.55,14.85,47.88,1022.43,2044.98,3528.95,3073.41,3491.90,599.86,605.31,7.36,0000 0000 0000 0000 000000
2016-07-02 03:22:53,0.02,0.11,0.00,20.14,25.97,29.57,14.89,47.99,1022.44,2044.99,3528.49,3073.07,3491.35,600.30,605.61,7.41,0000 0000 0000 0000 000000
2016-07-02 03:27:54,0.01,0.11,0.00,20.16,25.99,29.57,14.81,47.93,1022.42,2044.99,3528.05,3073.01,3491.04,599.95,605.17,7.46,0000 0000 0000 0000 000000
2016-07-02 03:32:55,0.00,0.11,0.00,20.17,26.00,29.54,14.85,47.77,1022.42,2044.98,3528.01,3073.00,3491.00,600.02,605.23,7.51,0000 0000 0000 0000 000000
2016-07-02 03:37:56,-0.00,0.11,0.00,20.13,26.01,29.61,14.85,47.87,1022.40,2044.96,3528.00,3073.00,3491.00,599.87,605.13,7.56,0000 0000 0000 0000 000000
2016-07-02 03:42:58,0.00,0.11,0.00,20.23,26.02,29.60,14.83,47.77,1022.39,2044.96,3528.00,3072.99,3491.00,599.80,604.83,7.61,0000 0000 0000 0000 000000
2016-07-02 03:47:59,-0.01,0.11,0.00,20.24,26.03,29.63,14.88,48.04,1022.32,2044.87,3527.96,3072.97,3490.96,599.75,604.72,7.66,0000 0000 0000 0000 000000
2016-07-02 03:53:00,-0.00,0.11,0.00,20.20,26.05,29.56,14.89,47.91,1022.25,2044.64,3527.65,3072.75,3490.69,600.14,605.23,7.71,0000 0000 0000 0000 000000
2016-07-02 03:58:01,-0.01,0.11,0.00,20.24,26.05,29.56,14.78,47.82,1022.23,2044.36,3527.25,3072.27,3490.21,599.84,604.81,7.76,0000 0000 0000 0000 000000
2016-07-02 04:03:02,0.00,0.11,0.00,20.25,26.07,29.63,14.80,47.88,1022.28,2044.25,3527.03,3072.04,3490.02,599.55,604.58,7.81,0000 0000 0000 0000 000000
2016-07-02 04:08:04,-0.01,0.11,0.00,20.27,26.07,29.67,14.86,47.90,1022.30,2044.11,3527.00,3072.02,3490.00,600.03,604.98,7.86,0000 0000 0000 0000 000000
2016-07-02 04:13:05,0.00,0.11,0.00,20.27,26.09,29.58,14.85,47.86,1022.30,2044.07,3527.00,3072.01,3490.00,600.05,605.01,7.91,0000 0000 0000 0000 000000
2016-07-02 04:18:06,0.00,0.11,0.00,20.30,26.10,29.62,14.76,47.83,1022.23,2044.02,3526.97,3072.00,3489.97,599.61,604.48,7.96,0000 0000 0000 0000 000000
2016-07-02 04:23:07,0.00,0.11,0.00,20.32,26.11,29.63,14.84,47.75,1022.32,2044.01,3526.88,3071.99,3489.86,600.11,604.92,8.01,0000 0000 0000 0000 000000
2016-07-02 04:28:09,0.01,0.11,0.00,20.32,26.12,29.71,14.89,47.86,1022.44,2044.00,3526.52,3071.97,3489.48,599.90,604.78,8.06,0000 0000 0000 0000 000000
2016-07-02 04:33:10,0.01,0.11,0.00,20.34,26.13,29.76,14.78,47.87,1022.48,2044.00,3526.21,3071.89,3489.15,599.66,604.58,8.11,0000 0000 0000 0000 000000
2016-07-02 04:38:11,0.01,0.11,0.00,20.31,26.15,29.64,14.89,47.92,1022.46,2044.00,3526.04,3071.49,3489.04,599.95,604.90,8.16,0000 0000 0000 0000 000000
2016-07-02 04:43:12,0.00,0.11,0.00,20.34,26.15,29.70,14.86,47.85,1022.47,2044.00,3526.00,3071.09,3489.00,599.96,604.83,8.21,0000 0000 0000 0000 000000
2016-07-02 04:48:14,0.00,0.11,0.00,20.38,26.17,29.73,14.87,47.88,1022.48,2044.00,3525.99,3071.03,3489.00,600.22,605.09,8.26,0000 0000 0000 0000 000000
2016-07-02 04:53:15,0.00,0.11,0.00,20.44,26.18,29.67,14.87,47.86,1022.48,2043.99,3525.98,3071.00,3488.98,600.03,604.77,8.31,0000 0000 0000 0000 000000
2016-07-02 04:58:16,-0.00,0.11,0.00,20.42,26.20,29.75,14.87,47.82,1022.47,2043.99,3525.91,3071.00,3488.92,600.08,604.77,8.36,0000 0000 0000 0000 000000
2016-07-02 05:03:17,0.01,0.11,0.00,20.39,26.20,29.78,14.84,47.76,1022.48,2043.99,3525.59,3071.00,3488.77,600.07,604.87,8.41,0000 0000 0000 0000 000000
2016-07-02 05:08:18,0.01,0.11,0.00,20.42,26.22,29.81,14.84,47.78,1022.45,2043.98,3525.18,3071.00,3488.29,599.95,604.67,8.46,0000 0000 0000 0000 000000
2016-07-02 05:13:19,0.00,0.12,0.00,20.42,26.22,29.77,14.76,47.82,1022.41,2043.98,3525.03,3070.99,3488.05,599.66,604.44,8.51,0000 0000 0000 0000 000000
2016-07-02 05:18:20,0.00,0.12,0.00,20.43,26.25,29.83,14.78,47.81,1022.29,2043.95,3525.00,3070.94,3488.00,599.98,604.58,8.56,0000 0000 0000 0000 000000
2016-07-02 05:23:21,-0.00,0.12,0.00,20.44,26.25,29.88,14.86,47.87,1022.30,2043.88,3525.00,3070.68,3488.00,599.90,604.63,8.61,0000 0000 0000 0000 000000
2016-07-02 05:28:23,0.00,0.12,0.00,20.47,26.27,29.80,14.85,47.78,1022.27,2043.75,3524.99,3070.28,3487.99,600.23,604.75,8.66,0000 0000 0000 0000 000000
2016-07-02 05:33:24,-0.02,0.11,0.00,20.51,26.28,29.80,14.89,47.68,1022.33,2043.46,3524.88,3070.04,3487.94,600.19,604.64,8.71,0000 0000 0000 0000 000000
2016-07-02 05:38:25,0.00,0.11,0.00,20.51,26.30,29.84,14.86,47.83,1022.29,2043.28,3524.42,3070.01,3487.54,600.09,604.58,8.76,0000 0000 0000 0000 000000
2016-07-02 05:43:27,-0.01,0.11,0.00,20.49,26.31,29.81,14.79,47.81,1022.13,2043.10,3524.05,3070.00,3487.08,599.81,604.37,8.81,0000 0000 0000 0000 000000
2016-07-02 05:48:28,-0.00,0.11,0.00,20.57,26.32,29.80,14.85,47.92,1022.05,2043.02,3524.00,3069.98,3487.00,599.90,604.09,8.86,0000 0000 0000 0000 000000
2016-07-02 05:53:28,-0.00,0.11,0.00,20.58,26.33,29.86,14.85,47.67,1022.06,2043.02,3523.99,3069.96,3487.00,599.91,604.08,8.91,0000 0000 0000 0000 000000
2016-07-02 05:58:30,0.01,0.11,0.00,20.60,26.35,29.88,14.84,47.70,1022.08,2043.02,3523.81,3069.74,3486.97,600.15,604.23,8.96,0000 0000 0000 0000 000000
2016-07-02 06:03:31,0.01,0.12,0.00,20.62,26.36,29.79,14.78,47.72,1022.10,2043.02,3523.41,3069.34,3486.86,600.13,604.20,9.01,0000 0000 0000 0000 000000
2016-07-02 06:08:32,0.01,0.12,0.00,20.63,26.37,29.86,14.81,47.67,1022.10,2043.00,3523.06,3069.05,3486.33,600.09,604.22,9.06,0000 0000 0000 0000 000000
2016-07-02 06:13:34,0.00,0.12,0.00,20.67,26.39,29.87,14.85,47.78,1022.13,2043.00,3522.99,3069.00,3486.04,600.15,604.12,9.11,0000 0000 0000 0000 000000
2016-07-02 06:18:35,0.04,0.12,0.00,20.72,26.40,29.82,14.83,47.85,1022.12,2042.99,3522.31,3068.56,3485.64,600.10,603.99,9.16,0000 0000 0000 0000 000000
2016-07-02 06:23:36,0.01,0.12,0.00,20.70,26.42,29.83,14.81,47.80,1022.01,2042.99,3522.04,3068.10,3485.14,600.31,604.06,9.22,0000 0000 0000 0000 000000
2016-07-02 06:28:37,0.00,0.12,0.00,20.72,26.44,29.84,14.82,47.72,1022.02,2042.99,3522.00,3068.02,3485.03,600.17,603.99,9.27,0000 0000 0000 0000 000000
2016-07-02 06:33:39,-0.00,0.12,0.00,20.71,26.45,29.88,14.75,47.80,1022.02,2042.97,3521.98,3068.00,3485.00,599.85,603.72,9.32,0000 0000 0000 0000 000000
2016-07-02 06:38:40,0.00,0.12,0.00,20.74,26.47,29.95,14.90,47.84,1022.02,2042.95,3521.93,3068.00,3484.99,600.48,604.26,9.37,0000 0000 0000 0000 000000
2016-07-02 06:43:42,0.00,0.12,0.00,20.77,26.49,29.95,14.81,47.88,1022.01,2042.97,3521.83,3067.99,3484.97,599.53,603.30,9.42,0000 0000 0000 0000 000000
2016-07-02 06:48:43,0.00,0.12,0.00,20.75,26.50,29.95,14.81,47.88,1022.00,2042.85,3521.20,3067.94,3484.61,600.14,603.91,9.47,0000 0000 0000 0000 000000
2016-07-02 06:53:44,-0.02,0.12,0.00,20.78,26.52,29.99,14.76,47.86,1021.99,2042.51,3521.02,3067.61,3484.10,599.75,603.49,9.52,0000 0000 0000 0000 000000
2016-07-02 06:58:46,-0.00,0.12,0.00,20.80,26.54,29.97,14.84,47.87,1022.01,2042.26,3521.00,3067.10,3484.02,599.90,603.54,9.57,0000 0000 0000 0000 000000
2016-07-02 07:03:47,-0.01,0.12,0.00,20.81,26.55,30.03,14.83,47.79,1022.10,2042.20,3521.00,3067.05,3484.00,599.74,603.55,9.62,0000 0000 0000 0000 000000
2016-07-02 07:08:48,-0.01,0.12,0.00,20.83,26.57,30.02,14.81,47.81,1022.09,2042.03,3520.91,3067.02,3483.99,599.81,603.42,9.67,0000 0000 0000 0000 000000
2016-07-02 07:13:49,0.01,0.12,0.00,21.06,26.57,30.08,14.78,47.72,1022.01,2042.01,3520.24,3066.99,3483.88,600.17,603.37,9.72,0000 0000 0000 0000 000000
2016-07-02 07:18:51,0.00,0.12,0.00,22.19,26.61,30.10,14.71,47.52,1022.01,2042.00,3520.17,3066.97,3483.37,600.29,601.14,9.77,0000 0000 0000 0000 000000
2016-07-02 07:23:52,0.02,0.12,0.00,22.75,26.65,30.03,14.49,47.30,1022.01,2042.00,3520.04,3066.42,3483.01,599.64,599.48,9.82,0000 0000 0000 0000 000000
2016-07-02 07:28:53,0.00,0.12,0.00,22.95,26.71,29.88,14.59,47.11,1022.01,2041.98,3520.00,3066.01,3482.92,600.03,599.30,9.87,0000 0000 0000 0000 000000
2016-07-02 07:33:54,-0.00,0.12,0.00,23.03,26.77,29.83,14.54,47.17,1022.02,2041.79,3519.69,3065.92,3482.12,600.04,599.24,9.92,0000 0000 0000 0000 000000
2016-07-02 07:38:56,-0.02,0.12,0.00,23.02,26.83,29.87,14.60,47.09,1022.08,2041.17,3519.05,3065.20,3481.86,600.21,599.40,9.97,0000 0000 0000 0000 000000
2016-07-02 07:43:57,0.01,0.12,0.00,22.51,26.89,30.00,14.57,47.24,1022.14,2041.00,3518.95,3064.99,3481.11,599.52,599.62,10.02,0000 0000 0000 0000 000000
2016-07-02 07:48:58,0.03,0.12,0.00,22.00,26.94,30.17,14.71,47.38,1022.07,2040.99,3518.17,3064.54,3480.93,600.09,601.37,10.07,0000 0000 0000 0000 000000
2016-07-02 07:54:00,-0.00,0.12,0.00,21.71,26.98,30.39,14.76,47.38,1022.08,2040.83,3517.93,3064.02,3480.24,600.04,601.89,10.12,0000 0000 0000 0000 000000
2016-07-02 07:59:01,-0.03,0.12,0.00,21.61,27.01,30.40,14.73,47.46,1022.10,2040.33,3517.23,3064.00,3480.00,599.72,601.77,10.17,0000 0000 0000 0000 000000
2016-07-02 08:04:02,-0.01,0.12,0.00,21.79,27.05,30.34,14.70,47.34,1022.11,2040.06,3517.01,3063.89,3479.91,600.05,601.68,10.22,0000 0000 0000 0000 000000
2016-07-02 08:09:03,0.03,0.12,0.00,22.71,27.10,30.51,14.63,47.41,1022.09,2040.00,3516.90,3063.13,3479.13,599.85,599.70,10.27,0000 0000 0000 0000 000000
2016-07-02 08:14:05,0.01,0.12,0.00,23.08,27.15,30.43,14.57,47.12,1022.21,2040.00,3516.24,3062.98,3478.92,599.94,599.11,10.32,0000 0000 0000 0000 000000
2016-07-02 08:19:06,0.02,0.12,0.00,23.19,27.20,30.32,14.53,47.01,1022.23,2039.94,3516.00,3062.51,3478.17,599.82,598.87,10.37,0000 0000 0000 0000 000000
2016-07-02 08:24:07,-0.03,0.12,0.00,23.16,27.26,30.34,14.67,47.17,1022.21,2039.64,3515.78,3061.98,3477.88,600.59,599.59,10.42,0000 0000 0000 0000 000000
2016-07-02 08:29:09,0.01,0.12,0.00,23.03,27.31,30.44,14.58,47.00,1022.24,2039.04,3514.98,3061.13,3477.04,599.77,599.05,10.47,0000 0000 0000 0000 000000
2016-07-02 08:34:10,0.02,0.12,0.00,23.20,27.37,30.48,14.62,47.04,1022.22,2038.99,3514.22,3060.99,3476.37,600.12,599.07,10.52,0000 0000 0000 0000 000000
2016-07-02 08:39:12,0.01,0.12,0.00,23.40,27.43,30.47,14.51,47.00,1022.35,2038.96,3514.00,3060.49,3476.00,599.62,598.33,10.57,0000 0000 0000 0000 000000
2016-07-02 08:44:13,-0.02,0.12,0.00,23.41,27.49,30.51,14.57,46.89,1022.44,2038.50,3513.65,3060.01,3475.52,599.89,598.45,10.62,0000 0000 0000 0000 000000
2016-07-02 08:49:14,0.02,0.12,0.00,23.51,27.54,30.53,14.52,46.85,1022.42,2038.04,3512.92,3059.54,3474.71,599.91,598.35,10.67,0000 0000 0000 0000 000000
2016-07-02 08:54:16,0.02,0.12,0.00,23.40,27.59,30.60,14.53,46.98,1022.44,2038.00,3512.15,3058.99,3474.02,600.09,598.83,10.72,0000 0000 0000 0000 000000
2016-07-02 08:59:16,0.02,0.12,0.00,22.70,27.64,30.78,14.67,47.11,1022.47,2037.97,3511.95,3058.41,3473.81,600.21,600.32,10.77,0000 0000 0000 0000 000000
2016-07-02 09:04:18,-0.00,0.13,0.00,22.42,27.67,31.02,14.73,47.26,1022.48,2037.73,3511.23,3058.02,3473.09,599.97,600.58,10.82,0000 0000 0000 0000 000000
2016-07-02 09:09:19,-0.04,0.12,0.00,22.65,27.71,30.96,14.75,47.26,1022.47,2037.24,3511.01,3057.99,3473.00,600.25,600.29,10.87,0000 0000 0000 0000 000000
2016-07-02 09:14:21,0.00,0.12,0.00,22.86,27.74,30.91,14.68,47.26,1022.48,2037.04,3510.97,3057.89,3472.95,599.93,599.75,10.92,0000 0000 0000 0000 000000
2016-07-02 09:19:22,0.04,0.12,0.00,23.34,27.79,31.02,14.52,47.08,1022.48,2037.00,3510.48,3057.20,3472.24,600.06,598.84,10.97,0000 0000 0000 0000 000000
2016-07-02 09:24:23,0.00,0.13,0.00,23.46,27.83,30.91,14.65,46.99,1022.48,2037.00,3510.01,3057.00,3471.98,600.12,598.69,11.02,0000 0000 0000 0000 000000
2016-07-02 09:29:25,0.01,0.13,0.00,23.51,27.88,30.89,14.60,47.00,1022.48,2036.96,3509.95,3056.80,3471.52,600.03,598.50,11.07,0000 0000 0000 0000 000000
2016-07-02 09:34:26,-0.02,0.13,0.00,23.35,27.91,30.96,14.57,47.05,1022.48,2036.52,3509.24,3056.09,3471.02,599.73,598.40,11.12,0000 0000 0000 0000 000000
2016-07-02 09:39:27,-0.01,0.12,0.00,23.50,27.95,30.96,14.58,46.96,1022.48,2036.14,3509.01,3056.00,3470.96,600.02,598.44,11.17,0000 0000 0000 0000 000000
2016-07-02 09:44:28,0.02,0.12,0.00,23.61,27.99,30.93,14.53,46.88,1022.48,2036.02,3508.69,3055.85,3470.26,599.86,598.09,11.22,0000 0000 0000 0000 000000
2016-07-02 09:49:29,0.02,0.13,0.00,23.43,28.03,30.99,14.58,47.13,1022.48,2036.00,3508.08,3055.19,3470.00,599.77,598.37,11.27,0000 0000 0000 0000 000000
2016-07-02 09:54:31,0.00,0.13,0.00,22.74,28.05,31.23,14.70,47.23,1022.48,2036.00,3507.97,3055.00,3469.87,600.08,600.03,11.32,0000 0000 0000 0000 000000
2016-07-02 09:59:32,0.01,0.13,0.00,22.52,28.07,31.13,14.69,47.40,1022.48,2035.97,3507.46,3054.98,3469.21,599.89,600.37,11.37,0000 0000 0000 0000 000000
2016-07-02 10:04:33,0.01,0.13,0.00,23.14,28.08,31.24,14.63,47.17,1022.48,2035.94,3507.03,3054.81,3469.01,600.13,599.35,11.43,0000 0000 0000 0000 000000
2016-07-02 10:09:34,0.00,0.13,0.00,23.43,28.11,31.38,14.59,47.13,1022.48,2035.89,3507.01,3054.31,3469.00,599.76,598.33,11.48,0000 0000 0000 0000 000000
2016-07-02 10:14:35,-0.01,0.13,0.00,23.53,28.13,31.20,14.61,47.01,1022.48,2035.67,3507.00,3054.03,3468.96,600.03,598.44,11.53,0000 0000 0000 0000 000000
2016-07-02 10:19:37,-0.03,0.13,0.00,23.26,28.15,31.22,14.57,47.02,1022.48,2035.18,3506.82,3054.00,3468.33,600.02,598.91,11.58,0000 0000 0000 0000 000000
2016-07-02 10:24:38,0.00,0.13,0.00,22.89,28.17,31.32,14.62,47.21,1022.48,2035.05,3506.15,3054.00,3468.04,599.84,599.58,11.63,0000 0000 0000 0000 000000
2016-07-02 10:29:39,0.01,0.13,0.00,23.32,28.17,31.38,14.59,47.06,1022.48,2035.00,3506.00,3053.78,3468.00,600.05,598.77,11.68,0000 0000 0000 0000 000000
2016-07-02 10:34:41,0.01,0.13,0.00,23.52,28.20,31.25,14.61,46.89,1022.48,2035.00,3506.00,3053.20,3467.98,600.13,598.55,11.73,0000 0000 0000 0000 000000
2016-07-02 10:39:42,0.01,0.13,0.00,23.51,28.22,31.18,14.57,46.98,1022.48,2035.00,3505.90,3053.04,3467.63,600.09,598.51,11.78,0000 0000 0000 0000 000000
2016-07-02 10:44:43,0.01,0.13,0.00,23.61,28.24,31.18,14.56,46.92,1022.48,2035.00,3505.32,3053.00,3467.05,599.70,597.94,11.83,0000 0000 0000 0000 000000
2016-07-02 10:49:44,0.00,0.13,0.00,23.66,28.26,31.14,14.58,46.92,1022.48,2034.99,3505.05,3052.99,3467.01,599.97,598.11,11.88,0000 0000 0000 0000 000000
2016-07-02 10:54:46,-0.00,0.13,0.00,23.73,28.27,31.12,14.57,46.88,1022.48,2034.93,3505.00,3052.91,3467.00,599.97,597.81,11.93,0000 0000 0000 0000 000000
2016-07-02 10:59:47,0.00,0.13,0.00,23.61,28.30,31.17,14.52,46.91,1022.48,2034.83,3504.99,3052.46,3466.85,599.82,597.99,11.98,0000 0000 0000 0000 000000
2016-07-02 11:04:48,0.01,0.13,0.00,23.18,28.31,31.41,14.61,47.11,1022.48,2034.58,3504.63,3052.04,3466.29,599.77,598.85,12.03,0000 0000 0000 0000 000000
2016-07-02 11:09:49,-0.02,0.13,0.00,23.18,28.32,31.49,14.72,47.23,1022.48,2034.22,3504.08,3052.00,3466.02,600.32,599.36,12.08,0000 0000 0000 0000 000000
2016-07-02 11:14:50,-0.00,0.13,0.00,23.60,28.33,31.26,14.67,47.05,1022.48,2034.09,3504.00,3052.00,3466.00,600.24,598.47,12.13,0000 0000 0000 0000 000000
2016-07-02 11:19:52,-0.00,0.13,0.00,23.24,28.35,31.35,14.67,47.05,1022.48,2034.03,3504.00,3051.97,3465.99,599.86,598.87,12.18,0000 0000 0000 0000 000000
2016-07-02 11:24:53,0.00,0.13,0.00,23.09,28.35,31.58,14.59,47.15,1022.48,2034.02,3503.95,3051.95,3465.97,599.56,598.85,12.23,0000 0000 0000 0000 000000
2016-07-02 11:29:54,0.00,0.13,0.00,23.50,28.37,31.50,14.64,47.13,1022.48,2034.01,3503.95,3051.85,3465.80,599.73,598.17,12.28,0000 0000 0000 0000 000000
2016-07-02 11:34:55,0.03,0.13,0.00,23.68,28.38,31.33,14.57,47.01,1022.48,2034.00,3503.41,3051.30,3465.21,600.13,598.12,12.33,0000 0000 0000 0000 000000
2016-07-02 11:39:57,0.01,0.13,0.00,23.66,28.40,31.29,14.53,46.81,1022.48,2034.00,3503.08,3051.06,3465.02,599.76,597.86,12.38,0000 0000 0000 0000 000000
2016-07-02 11:44:58,0.00,0.13,0.00,23.24,28.40,31.48,14.72,46.99,1022.47,2034.00,3503.00,3051.01,3465.00,600.09,599.12,12.43,0000 0000 0000 0000 000000
2016-07-02 11:49:59,0.00,0.13,0.00,22.81,28.40,31.52,14.68,47.20,1022.47,2034.00,3502.97,3051.00,3465.00,599.95,599.82,12.48,0000 0000 0000 0000 000000
2016-07-02 11:55:00,0.00,0.13,0.00,23.16,28.40,31.49,14.67,47.04,1022.47,2034.00,3502.96,3051.00,3464.99,600.18,599.31,12.53,0000 0000 0000 0000 000000
2016-07-02 12:00:01,0.00,0.13,0.00,23.50,28.41,31.62,14.59,47.01,1022.48,2034.00,3502.96,3051.00,3464.98,600.39,598.73,12.58,0000 0000 0000 0000 000000
2016-07-02 12:05:03,0.00,0.13,0.00,23.61,28.42,31.58,14.62,46.96,1022.47,2034.00,3502.90,3051.00,3464.98,599.91,598.22,12.63,0000 0000 0000 0000 000000
2016-07-02 12:10:04,0.01,0.13,0.00,23.71,28.43,31.33,14.62,46.88,1022.48,2033.99,3502.44,3050.98,3464.75,600.09,598.13,12.68,0000 0000 0000 0000 000000
2016-07-02 12:15:05,0.01,0.13,0.00,23.69,28.45,31.30,14.65,46.98,1022.47,2033.98,3502.08,3050.85,3464.24,600.29,598.30,12.73,0000 0000 0000 0000 000000
2016-07-02 12:20:07,0.01,0.13,0.00,23.71,28.45,31.31,14.50,46.91,1022.43,2033.97,3502.03,3050.42,3464.03,599.75,597.64,12.78,0000 0000 0000 0000 000000
2016-07-02 12:25:08,0.00,0.13,0.00,23.72,28.45,31.31,14.57,46.91,1022.38,2033.97,3502.00,3050.10,3464.00,599.97,597.96,12.83,0000 0000 0000 0000 000000
2016-07-02 12:30:09,-0.00,0.13,0.00,23.77,28.47,31.30,14.61,46.93,1022.31,2033.97,3502.00,3050.04,3464.00,599.84,597.64,12.88,0000 0000 0000 0000 000000
2016-07-02 12:35:10,0.00,0.13,0.00,23.14,28.47,31.48,14.65,47.00,1022.22,2033.97,3501.98,3050.01,3463.99,599.92,599.05,12.93,0000 0000 0000 0000 000000
2016-07-02 12:40:11,0.00,0.13,0.00,22.64,28.46,31.51,14.66,47.13,1022.18,2033.98,3501.77,3050.01,3463.99,600.00,600.10,12.98,0000 0000 0000 0000 000000
2016-07-02 12:45:12,-0.01,0.13,0.00,22.93,28.45,31.49,14.67,47.26,1022.05,2033.97,3501.77,3050.00,3463.98,600.18,599.57,13.03,0000 0000 0000 0000 000000
2016-07-02 12:50:14,0.00,0.13,0.00,23.40,28.45,31.62,14.54,47.02,1021.99,2033.97,3501.73,3050.00,3463.98,599.64,598.05,13.08,0000 0000 0000 0000 000000
2016-07-02 12:55:15,0.00,0.13,0.00,23.56,28.45,31.56,14.56,47.10,1022.01,2033.96,3501.46,3050.00,3463.96,599.68,597.72,13.13,0000 0000 0000 0000 000000